Regional Weather Roundup
Issued by NWS

Home | Current Version | Previous Version | Graphics & Text | Print | Product List | Glossary Off
Versions: 1 2 3 4 5 6 7 8 9 10 11 12 13 14 15 16 17 18 19 20 21 22 23 24 25 26 27 28 29 30 31 32 33 34 35 36 37 38 39 40 41 42 43 44 45 46 47 48 49 50

985
ASUS43 KMPX 091901
RWRMN
WEATHER ROUNDUP FOR MINNESOTA
NATIONAL WEATHER SERVICE TWIN CITIES/CHANHASSEN MN
100 PM CST TUE FEB 09 2016


NOTE: "FAIR" INDICATES FEW OR NO CLOUDS BELOW 12,000 FEET WITH NO
SIGNIFICANT WEATHER AND/OR OBSTRUCTIONS TO VISIBILITY. N/A MEANS
CURRENT SKY AND/OR WEATHER CONDITIONS ARE NOT AVAILABLE.

MNZ060>063-068>070-092000-
   Twin Cities Metro

CITY           SKY/WX    TMP DP  RH WIND       PRES   REMARKS
TWIN CITIES    SUNNY     15   1  53 NW18G28   30.09F WCI  -2
ST PAUL        SUNNY     15   0  51 NW20G32   30.10F WCI  -2
CRYSTAL        SUNNY     15   0  51 NW18G24   30.10F WCI  -2
BLAINE         SUNNY     16   1  53 NW17G26   30.09  WCI   0
LAKEVILLE      SUNNY     12   1  62 NW18G25   30.07F WCI  -5
EDEN PRAIRIE   SUNNY     15  -1  49 NW20G26   30.08F WCI  -2
SOUTH ST PAUL  SUNNY     16   0  48 N15G22    30.08F WCI   1
LAKE ELMO      FAIR      16   1  53 N10       30.08F WCI   3
$$
MNZ001>005-007-008-013>017-022>024-027-028-092000-
   Northwest Minnesota

CITY           SKY/WX    TMP DP  RH WIND       PRES   REMARKS
BEMIDJI        SUNNY      4  -4  71 NW9       30.17F WCI -11
HALLOCK        SUNNY      7   0  72 N10       30.31S WCI  -8
ROSEAU         SUNNY      3  -2  78 W8        30.24F WCI -10
WARROAD        SUNNY      5  -2  72 W8        30.22F WCI  -8
THIEF RVR FALL SUNNY      9   0  66 N10       30.25F WCI  -6
CROOKSTON      SUNNY     10   3  72 N15       30.29S WCI  -6
FOSSTON        SUNNY     12   0  57 NW12      30.22F WCI  -2
DETROIT LAKES  SUNNY     10   3  72 N16G23    30.20F WCI  -7
MOORHEAD       SUNNY     12   5  73 N16       30.27F WCI  -4
PARK RAPIDS    SUNNY     11  -2  56 N13       30.14F WCI  -4
MAHNOMEN       FAIR       8   0  72 N14       30.22F WCI  -9
$$
MNZ006-009>011-018-025>026-092000-
   North Central Minnesota

CITY           SKY/WX    TMP DP  RH WIND       PRES   REMARKS
BAUDETTE       CLOUDY     2  -5  72 NW10      30.18F WCI -14
FLAG ISLAND    SUNNY      3  -2  78 NW15      30.21F WCI -15
INTL FALLS     SUNNY      4  -6  63 N12       30.14F WCI -12
WASKISH        SUNNY      7  -2  66 NW10      30.17F WCI  -8
LONGVILLE      SUNNY      7  -4  61 NW8       30.15S WCI  -6
GRAND RAPIDS   SUNNY      7  -6  56 NW16G23   30.09F WCI -11
CRANE LAKE     MOSUNNY    3  -6  66 N8G17     30.13F WCI -10
ORR            SUNNY      5  -8  56 NW9       30.07F WCI  -9
COOK           SUNNY      7  -6  56 NW12G17   30.08F WCI  -9
WALKER         FAIR       4  -4  67 NW10G17   30.16F WCI -11
$$
MNZ012-019>021-037-092000-
   Northeast Minnesota

CITY           SKY/WX    TMP DP  RH WIND       PRES   REMARKS
DULUTH         MOSUNNY    7  -5  57 NW17G23   30.00F WCI -12
ELY            MOSUNNY    3  -2  78 NW9       30.03F WCI -11
HIBBING        SUNNY      4  -4  69 NW17      30.07F WCI -16
EVELETH        SUNNY      7  -4  61 NW13G21   30.06F WCI  -9
DULUTH HARBOR  SUNNY     12  -2  52 NW14      30.09F WCI  -3
TWO HARBORS    SUNNY     12   0  57 NW8G16    30.00F WCI   1
SILVER BAY     SUNNY     12  -2  52 NW8G20    29.99F WCI   1
G MARAIS ARPRT MOSUNNY    3  -8  60 NW14G22   29.90S WCI -15
$$
MNZ029>031-032-039>041-046>048-054>057-064-092000-
   West Central Minnesota

CITY           SKY/WX    TMP DP  RH WIND       PRES   REMARKS
FERGUS FALLS   CLOUDY    12   5  73 N14G26    30.26S WCI  -3
WHEATON        PTSUNNY   16   9  73 NW15G22   30.27F WCI   1
MORRIS         CLOUDY    14   7  73 N20G25    30.21S WCI  -3
ALEXANDRIA     SUNNY     13   1  59 N15G22    30.16F WCI  -3
ELBOW LAKE     CLOUDY    12   4  70 NW15      30.21F HAZE    WCI  -4
WADENA         SUNNY     10   1  67 N15       30.16S WCI  -6
GLENWOOD       SUNNY     12   3  67 NW13      30.17S WCI  -3
APPLETON       CLOUDY    16   7  67 N18       30.23F WCI  -1
BENSON         CLOUDY    16   7  67 N14G22    30.21F WCI   1
ORTONVILLE     CLOUDY    16   7  67 NW15      30.23F WCI   1
MADISON        PTSUNNY   18   9  68 N17       30.24F WCI   2
WILLMAR        FAIR      16   9  73 NW17      30.19S WCI   0
$$
MNZ033>034-036-042>043-049>051-058-059-092000-
   Central Minnesota

CITY           SKY/WX    TMP DP  RH WIND       PRES   REMARKS
ST CLOUD       SUNNY     13   0  56 N20       30.14F WCI  -5
SAUK CENTRE    FAIR      11   1  62 NW13      30.17S WCI  -3
PAYNESVILLE    SUNNY     12   2  65 NW16G22   30.17F WCI  -4
AITKIN         SUNNY     12  -6  44 NW10G16   30.10F WCI  -1
PINE RIVER       N/A      7  -2  66 NW10G18   30.17F WCI  -8
BRAINERD       SUNNY      8  -3  61 N14       30.14F WCI  -8
STAPLES        SUNNY     10   0  61 NW14      30.15F WCI  -5
LONG PRAIRIE   FAIR      10   1  67 NW13      30.16F WCI  -5
LITTLE FALLS   SUNNY     12  -2  52 NW13      30.15F WCI  -3
LITCHFIELD     SUNNY     14   3  62 NW18G24   30.15F WCI  -3
BUFFALO        SUNNY     15   2  56 NW12G18   30.14F WCI   1
MAPLE LAKE     SUNNY     15   4  60 NW17G23   30.15F WCI  -1
$$
MNZ037-044-045-052-053-092000-
   East Central Minnesota

CITY           SKY/WX    TMP DP  RH WIND       PRES   REMARKS
PRINCETON      SUNNY     14   1  57 NW14      30.11F WCI  -1
MORA           SUNNY     12   0  57 NW15G24   30.11S WCI  -4
CAMBRIDGE      SUNNY     12   0  57 NW15      30.08F WCI  -4
RUSH CITY      SUNNY     14  -1  51 NW13G21   30.08F WCI   0
MOOSE LAKE     SUNNY     12  -4  48 N16G24    30.05F WCI  -4
HINCKLEY       FAIR      14   0  52 NW14G24   30.08S WCI  -1
CLOQUET        SUNNY      9  -6  52 NW17G30   30.03F WCI -10
$$
MNZ071>073-080-081-089-090-097-098-092000-
   Southwest Minnesota

CITY           SKY/WX    TMP DP  RH WIND       PRES   REMARKS
MONTEVIDEO     CLOUDY    16   9  73 N17       30.23F WCI   0
GRANITE FALLS  CLOUDY    17   9  70 NW20      30.23F WCI   1
CANBY          CLOUDY    20  11  68 NW13      30.24F WCI   7
MARSHALL       CLOUDY    15   6  67 N23       30.20F WCI  -3
REDWOOD FALLS  PTSUNNY   17   5  59 NW16G25   30.18F WCI   2
OLIVIA         SUNNY     18   9  68 NW18G25   30.17F WCI   2
PIPESTONE        N/A     19   1  45 N16G23    30.17F WCI   5
WINDOM         SUNNY     12   7  79 NW23      30.15F WCI  -7
WORTHINGTON    CLOUDY    14   3  62 NW20      30.17F WCI  -3
JACKSON        SUNNY     14   5  67 NW24G30   30.14S WCI  -5
TRACY          SUNNY     16   8  70 NW20G26   30.19F WCI  -1
SLAYTON        CLOUDY    13   6  72 NW15      30.18S WCI  -2
$$
MNZ065>067-074>077-082>085-091>093-092000-
   South Central Minnesota

CITY           SKY/WX    TMP DP  RH WIND       PRES   REMARKS
MANKATO        SUNNY     14   3  62 NW17      30.12F WCI  -3
NEW ULM        SUNNY     14   3  62 N22G28    30.14F WCI  -4
ST JAMES       SUNNY     16   9  73 NW17      30.16F WCI   0
FAIRMONT       SUNNY     12   3  67 NW20G25   30.13F WCI  -6
GLENCOE        SUNNY     15   6  67 NW17      30.14F WCI  -1
FARIBAULT      SUNNY     14   1  57 NW17G25   30.08F WCI  -3
OWATONNA       SUNNY     12   1  62 NW18      30.07F WCI  -5
WASECA         SUNNY     14   5  67 NW16G24   30.11F WCI  -2
ALBERT LEA     SUNNY     12   1  62 NW13G23   30.06F WCI  -3
$$
MNZ078>079-086>088-094>096-092000-
   Southeast Minnesota

CITY           SKY/WX    TMP DP  RH WIND       PRES   REMARKS
ROCHESTER      SUNNY     10   1  67 NW23      30.01F WCI -10
RED WING       SUNNY     16   0  48 NW10G18   30.06F WCI   3
STANTON        SUNNY     16   1  53 N16       30.06F WCI   0
DODGE CENTER   SUNNY     12   1  62 NW22G30   30.02F WCI  -7
WINONA         SUNNY     14   1  57 NW17G29   30.05S WCI  -3
AUSTIN         SUNNY     10   3  72 NW18G29   30.04F WCI  -8
PRESTON        SUNNY     10  -1  60 NW18G25   30.00F WCI  -8
$$
ABBREVIATIONS USED IN REMARKS
   TC - TEMPERATURES IN CELSIUS
  WCI - WIND CHILL INDEX
   HX - HEAT INDEX
  VSB - VISIBILITY
$$




USA.gov is the U.S. government's official web portal to all federal, state and local government web resources and services.